Regional Weather Roundup
Issued by NWS New Orleans/Baton Rouge, LA

Home | Current Version | Previous Version | Text Only | Print | Product List | Glossary On
Versions: 1 2 3 4 5 6 7 8 9 10 11 12 13 14 15 16 17 18 19 20 21 22 23 24 25 26 27 28 29 30 31 32 33 34 35 36 37 38 39 40 41 42 43 44 45 46 47 48 49 50
205
ASUS44 KLIX 162305
RWRLIX
NEW ORLEANS REGIONAL WEATHER ROUNDUP
NATIONAL WEATHER SERVICE NEW ORLEANS LA
600 PM CDT TUE SEP 16 2014

NOTE: "FAIR" INDICATES FEW OR NO CLOUDS BELOW 12,000 FEET WITH NO
      SIGNIFICANT WEATHER AND/OR OBSTRUCTIONS TO VISIBILITY.
      SKY/WX - SKY CONDITION AND SIGNIFICANT WEATHER.
      TMP - AIR TEMPERATURE.     DP    - DEWPOINT TEMPERATURE.
      RH  - RELATIVE HUMIDITY.   PRES  - PRESSURE.
      HI  - HEAT INDEX.          WCI   - WIND CHILL INDEX.

*  THESE STATIONS ARE NOT NWS OR FAA STATIONS AND ARE NOT UNDER
   NWS QUALITY CONTROL.

LAZ038-040-048-061>063-065>067-069-170000-
SOUTHEAST LOUISIANA

CITY           SKY/WX    TMP DP  RH WIND       PRES   REMARKS
N.O. AUDUBON   NOT AVBL
N.O. INTL ARPT CLOUDY    76  73  91 SW5       30.01R
N.O. LAKEFRONT CLOUDY    80  76  87 CALM      30.01R
N.O. DOWNTOWN*   N/A     79  73  83 CALM      30.01R
SLIDELL        CLOUDY    76  73  91 W3        30.01R
BATON ROUGE    CLOUDY    76  71  85 S10       30.01R
BOOTHVILLE     CLOUDY    81  76  84 W12       30.00R
BELLE CHASSE   LGT RAIN  78  74  87 SW5       30.00S
BOGALUSA*      RAIN      77  72  83 N5        30.03R
GALLIANO*      NOT AVBL
NEW ROADS*     RAIN      75  72  92 S7        30.01R
GONZALES*      DRIZZLE   72  72 100 SW3       29.99F
HAMMOND*       CLOUDY    77  72  83 CALM      30.03R
HOUMA*         PTSUNNY   79  72  78 SW5       29.99F
PORT FOURCHON* NOT AVBL

$$

MSZ070-080>082-170000-
SOUTHERN MISSISSIPPI

CITY           SKY/WX    TMP DP  RH WIND       PRES   REMARKS
MCCOMB         CLOUDY    78  73  84 S7        30.00R
GULFPORT       CLOUDY    76  71  85 NW6       29.99S
BILOXI         CLOUDY    75  72  88 VRB2      29.98F
PASCAGOULA     CLOUDY    77  72  84 S5        29.99R
STENNIS ARPT*  PTSUNNY   73  70  88 CALM      30.01R

$$

COASTAL OBSERVATIONS
LAKE AND NEARSHORE STATIONS

STATION/POSITION TIME  TEMP    WIND        PRES    WAVE
                       AIR SEA DIR/SP/G            HT/PER
                 (UTC) (F)     (DEG/KT/KT) (MB)    (FT/S)
PASCAGOULA       2300   77      90/  9/ 20 1015.6
WAVELAND YACHT   2300   76     310/  5/  9 1015.4
GRAND ISLE       2300   81 86  260/ 12/ 16 1016.3
SOUTHWEST PASS   2300   82 91  280/ 14/ 20 1016.3
NEW CANAL        2300   79 83  220/  3/  4 1016.6
SHELL BEACH      2300   80 80  240/ 10/ 11 1015.5

OFFSHORE STATIONS

STATION/POSITION TIME  TEMP    WIND        PRES    WAVE
                       AIR SEA DIR/SP/G            HT/PER
                 (UTC) (F)     (DEG/KT/KT) (MB)    (FT/S)
64 S DAUPHIN ISL 2230   82 85  250/ 16/ 19 1015.4    2/ 5

$$




USA.gov is the U.S. government's official web portal to all federal, state and local government web resources and services.